Home > Time Zones > World Clock > Weather > U.S.A. > Gary > Past weeks

Flag for U.S.A. Weather past 2 weeks in Gary, Indiana, U.S.A.

Now
41 °F

Clear.


Feels Like: 34 °F
Forecast: 36 / 60 °F
Wind: 10 mph from Southeast

Location: Lansing Municipal Airport


UV Index: 0 (Low)

Visibility: 10 mi


Pressure: 30.17 "Hg

Humidity: 54%

Dew point: 25 °F

Location of GaryLocation

Historic Weather in Gary

°F

Gary temperature yesterday

Maximum temperature yesterday: 51 °F (at 5:15 PM)
Minimum temperature yesterday: 27 °F (at 3:55 AM)
Average temperature yesterday: 40 °F

Past Weeks' High & Low Weather Summary

 TemperatureHumidityPressure
High78 °F (Apr 12, 3:35 PM)97% (Apr 4, 6:55 AM)30.34 "Hg (Apr 4, 6:55 AM)
Low27 °F (Apr 15, 6:35 AM)15% (Apr 11, 3:55 PM)29.39 "Hg (Apr 14, 2:15 AM)
Average46 °F64%29.92 "Hg
* Reported Apr 2 1:15 AM — Apr 17 1:15 AM, Gary, Weather by CustomWeather, © 2014

Note: Actual official high and low records may vary slightly from our data, if they occured in-between our weather recording intervals... More about our weather records

Advertising

Historic Weather Conditions — Data for Previous 24 hours

 ConditionsComfort  
Time TempWeatherWind HumidityBarometerVisibility
1:15 AM
Apr 17
42 °FClear.13 mph52%30.19 "Hg10 mi
12:55 AM42 °FClear.15 mph52%30.19 "Hg10 mi
12:15 AM42 °FClear.10 mph50%30.19 "Hg10 mi
11:55 PM
Apr 16
42 °FClear.12 mph49%30.19 "Hg10 mi
11:35 PM42 °FClear.14 mph48%30.19 "Hg10 mi
11:15 PM43 °FClear.14 mph47%30.19 "Hg10 mi
10:55 PM43 °FClear.14 mph47%30.18 "Hg10 mi
10:15 PM44 °FClear.14 mph45%30.16 "Hg10 mi
9:55 PM44 °FClear.15 mph43%30.17 "Hg10 mi
9:35 PM45 °FClear.14 mph42%30.17 "Hg10 mi
9:15 PM45 °FClear.15 mph41%30.17 "Hg10 mi
8:55 PM46 °FClear.13 mph42%30.17 "Hg10 mi
8:35 PM46 °FClear.15 mph41%30.17 "Hg10 mi
8:15 PM46 °FClear.17 mph42%30.16 "Hg10 mi
7:55 PM46 °FClear.13 mph41%30.16 "Hg10 mi
7:35 PM47 °FClear.15 mph41%30.16 "Hg10 mi
7:15 PM47 °FSunny.14 mph40%30.16 "Hg10 mi
6:55 PM48 °FSunny.15 mph38%30.16 "Hg10 mi
6:35 PM49 °FSunny.13 mph37%30.16 "Hg10 mi
6:15 PM49 °FSunny.15 mph37%30.17 "Hg10 mi
5:55 PM50 °FSunny.18 mph36%30.17 "Hg10 mi
5:15 PM51 °FSunny.18 mph35%30.17 "Hg10 mi
4:55 PM50 °FSunny.16 mph36%30.18 "Hg10 mi
4:35 PM50 °FSunny.18 mph35%30.18 "Hg10 mi
4:15 PM50 °FSunny.22 mph35%30.19 "Hg10 mi
3:55 PM50 °FSunny.17 mph35%30.19 "Hg10 mi
3:35 PM50 °FSunny.20 mph36%30.21 "Hg10 mi
3:15 PM49 °FSunny.20 mph37%30.22 "Hg10 mi
2:55 PM49 °FSunny.20 mph38%30.23 "Hg10 mi
2:15 PM48 °FSunny.18 mph38%30.25 "Hg10 mi
1:55 PM49 °FSunny.20 mph42%30.25 "Hg10 mi
1:15 PM47 °FSunny.20 mph44%30.26 "Hg10 mi
12:55 PM46 °FSunny.17 mph45%30.27 "Hg10 mi
12:35 PM46 °FSunny.14 mph44%30.29 "Hg10 mi
12:15 PM45 °FSunny.17 mph45%30.30 "Hg10 mi
11:55 AM44 °FSunny.16 mph47%30.31 "Hg10 mi
11:15 AM43 °FSunny.17 mph51%30.32 "Hg10 mi
10:55 AM43 °FSunny.15 mph52%30.32 "Hg10 mi
10:35 AM42 °FSunny.16 mph52%30.33 "Hg10 mi
10:15 AM40 °FSunny.16 mph52%30.33 "Hg10 mi
9:55 AM40 °FSunny.15 mph55%30.33 "Hg10 mi
9:35 AM39 °FSunny.17 mph54%30.34 "Hg10 mi
9:15 AM38 °FSunny.12 mph57%30.33 "Hg10 mi
8:55 AM36 °FSunny.15 mph55%30.33 "Hg10 mi
8:15 AM35 °FSunny.15 mph57%30.33 "Hg10 mi
7:55 AM33 °FSunny.13 mph60%30.33 "Hg10 mi
7:15 AM32 °FSunny.7 mph64%30.31 "Hg10 mi
6:55 AM30 °FSunny.9 mph66%30.30 "Hg10 mi
6:35 AM30 °FSunny.7 mph66%30.30 "Hg10 mi
6:15 AM30 °FSunny.8 mph65%30.29 "Hg10 mi
5:55 AM29 °FClear.7 mph68%30.29 "Hg10 mi
5:35 AM29 °FClear.7 mph68%30.28 "Hg10 mi
5:15 AM29 °FClear.6 mph71%30.27 "Hg10 mi
4:55 AM28 °FClear.6 mph71%30.27 "Hg10 mi
4:35 AM28 °FClear.3 mph71%30.27 "Hg10 mi
4:15 AM28 °FClear.5 mph70%30.27 "Hg10 mi
3:55 AM27 °FClear.6 mph71%30.27 "Hg10 mi
3:35 AM28 °FClear.5 mph70%30.27 "Hg10 mi
3:15 AM28 °FClear.5 mph71%30.26 "Hg10 mi
2:55 AM28 °FClear.3 mph72%30.26 "Hg10 mi
2:15 AM28 °FClear.No wind72%30.25 "Hg10 mi
Weather by CustomWeather, © 2014

See weather overview